GW2922 Weather Reports


time (UTC)temp
C
wind
direction
speed
KPH
gust
KPH
rain 1hr
cm
rain 24hr
cm
rain mn
cm
humidity
%
barometer
mb
20260503025603 19 92 0.0 1.6 0.00 0.00 0.00 51 1016.5
20260503025101 19 101 0.0 3.2 0.00 0.00 0.00 48 1016.2
20260503024557 19 67 1.6 1.6 0.00 0.00 0.00 49 1016.2
20260503024054 20 51 3.2 4.8 0.00 0.00 0.00 48 1016.2
20260503023551 20 77 1.6 1.6 0.00 0.00 0.00 48 1016.2
20260503023048 20 51 1.6 3.2 0.00 0.00 0.00 47 1016.2
20260503022544 20 110 1.6 3.2 0.00 0.00 0.00 46 1016.5
20260503022039 20 97 1.6 1.6 0.00 0.00 0.00 49 1016.2
20260503021536 20 124 0.0 4.8 0.00 0.00 0.00 47 1016.5
20260503021033 20 108 0.0 3.2 0.00 0.00 0.00 47 1016.2
20260503020530 21 53 1.6 3.2 0.00 0.00 0.00 46 1016.2
20260503020027 21 117 0.0 1.6 0.00 0.00 0.00 46 1016.5
20260503015524 22 127 0.0 3.2 0.00 0.00 0.00 44 1016.5
20260503015021 22 194 1.6 1.6 0.00 0.00 0.00 43 1016.5
20260503014516 22 116 1.6 3.2 0.00 0.00 0.00 40 1016.5
20260503014015 22 164 1.6 3.2 0.00 0.00 0.00 41 1016.5
20260503013512 22 336 4.8 12.9 0.00 0.00 0.00 40 1016.5
20260503013009 22 218 0.0 9.7 0.00 0.00 0.00 41 1016.5
20260503012507 22 114 3.2 6.4 0.00 0.00 0.00 40 1016.5
20260503012003 22 90 3.2 4.8 0.00 0.00 0.00 40 1016.9
20260503011500 22 0 3.2 4.8 0.00 0.00 0.00 39 1016.9
20260503010957 23 99 1.6 4.8 0.00 0.00 0.00 38 1016.9
20260503010453 23 58 0.0 3.2 0.00 0.00 0.00 39 1016.9
20260503005950 23 1 3.2 6.4 0.00 0.00 0.00 39 1016.9
20260503005447 22 274 3.2 11.3 0.00 0.00 0.00 40 1016.9
20260503004944 23 134 3.2 11.3 0.00 0.00 0.00 40 1016.9
20260503004441 23 98 3.2 6.4 0.00 0.00 0.00 41 1016.9
20260503003939 22 258 1.6 6.4 0.00 0.00 0.00 41 1016.9
20260503003435 22 13 3.2 11.3 0.00 0.00 0.00 42 1016.9
20260503002932 23 119 3.2 4.8 0.00 0.00 0.00 41 1016.9
20260503002429 23 109 1.6 3.2 0.00 0.00 0.00 41 1016.9
20260503001926 23 288 4.8 6.4 0.00 0.00 0.00 39 1016.9
20260503001422 23 6 4.8 11.3 0.00 0.00 0.00 41 1016.9
20260503000920 23 353 4.8 9.7 0.00 0.00 0.00 41 1016.9
20260503000417 22 307 3.2 6.4 0.00 0.00 0.00 41 1016.9
20260502235914 22 87 1.6 12.9 0.00 0.00 0.00 42 1016.9
20260502235411 22 290 8.0 12.9 0.00 0.00 0.00 43 1017.2
20260502234908 22 9 4.8 12.9 0.00 0.00 0.00 42 1016.9
20260502234405 22 35 3.2 6.4 0.00 0.00 0.00 42 1017.2
20260502233902 23 125 0.0 4.8 0.00 0.00 0.00 39 1017.2
20260502233357 23 76 1.6 6.4 0.00 0.00 0.00 40 1017.2
20260502232855 23 128 0.0 3.2 0.00 0.00 0.00 41 1017.2
20260502232351 23 83 1.6 6.4 0.00 0.00 0.00 41 1017.2
20260502231848 23 119 3.2 4.8 0.00 0.00 0.00 42 1017.2
20260502231346 23 237 1.6 9.7 0.00 0.00 0.00 41 1017.5
20260502230844 23 60 1.6 6.4 0.00 0.00 0.00 44 1017.5
20260502230342 23 64 1.6 4.8 0.00 0.00 0.00 43 1017.5
20260502225838 22 262 3.2 6.4 0.00 0.00 0.00 45 1017.5
20260502225334 22 85 1.6 11.3 0.00 0.00 0.00 48 1017.9
20260502224832 21 166 1.6 9.7 0.00 0.00 0.00 48 1017.9
20260502224328 23 11 3.2 3.2 0.00 0.00 0.00 43 1017.9
20260502223825 22 185 1.6 6.4 0.00 0.00 0.00 45 1017.9
20260502223323 21 123 0.0 9.7 0.00 0.00 0.00 45 1017.9
20260502222821 21 79 3.2 6.4 0.00 0.00 0.00 45 1017.9
20260502222318 21 262 9.7 12.9 0.00 0.00 0.00 45 1018.2
20260502221814 21 302 8.0 9.7 0.00 0.00 0.00 44 1018.5
20260502221310 22 276 3.2 9.7 0.00 0.00 0.00 44 1018.5
20260502220807 21 77 3.2 4.8 0.00 0.00 0.00 48 1018.5
20260502220303 21 51 8.0 12.9 0.00 0.00 0.00 47 1018.5
20260502215800 21 274 3.2 12.9 0.00 0.00 0.00 46 1018.5
20260502215257 21 210 3.2 4.8 0.00 0.00 0.00 48 1018.5
20260502214754 21 6 9.7 11.3 0.00 0.00 0.00 47 1018.5
20260502214250 21 134 1.6 6.4 0.00 0.00 0.00 50 1018.5
20260502213748 20 336 8.0 14.5 0.00 0.00 0.00 50 1018.5
20260502213245 20 15 4.8 9.7 0.00 0.00 0.00 51 1018.5
20260502212744 21 83 6.4 9.7 0.00 0.00 0.00 51 1018.5
20260502212242 21 106 6.4 9.7 0.00 0.00 0.00 53 1018.5
20260502211737 21 347 6.4 9.7 0.00 0.00 0.00 52 1018.5
20260502211234 22 128 1.6 3.2 0.00 0.00 0.00 50 1018.5
20260502210731 22 103 1.6 3.2 0.00 0.00 0.00 51 1018.5
20260502210229 21 213 3.2 6.4 0.00 0.00 0.00 54 1018.5
20260502205726 21 122 0.0 9.7 0.00 0.00 0.00 55 1018.5
20260502205222 20 94 1.6 11.3 0.00 0.00 0.00 55 1018.5
20260502204719 20 74 3.2 9.7 0.00 0.00 0.00 58 1018.5
20260502204217 20 345 11.3 16.1 0.00 0.00 0.00 56 1018.5
20260502203714 20 57 3.2 3.2 0.00 0.00 0.00 56 1018.5
20260502203212 21 61 3.2 4.8 0.00 0.00 0.00 53 1018.5
20260502202706 21 69 1.6 4.8 0.00 0.00 0.00 55 1018.5
20260502202205 20 10 6.4 9.7 0.00 0.00 0.00 54 1018.9
20260502201702 20 20 6.4 9.7 0.00 0.00 0.00 55 1018.9
20260502201158 19 36 4.8 14.5 0.00 0.00 0.00 55 1018.9
20260502200654 19 292 4.8 9.7 0.00 0.00 0.00 55 1019.2
20260502200150 19 51 4.8 14.5 0.00 0.00 0.00 55 1019.2
20260502195649 19 55 3.2 12.9 0.00 0.00 0.00 57 1018.9
20260502195145 19 35 3.2 9.7 0.00 0.00 0.00 57 1019.2
20260502194642 20 90 1.6 4.8 0.00 0.00 0.00 57 1019.2
20260502194138 20 6 4.8 4.8 0.00 0.00 0.00 57 1018.9
20260502193635 19 97 1.6 6.4 0.00 0.00 0.00 58 1019.2
20260502193132 18 318 9.7 12.9 0.00 0.00 0.00 58 1019.2
20260502192627 18 15 4.8 12.9 0.00 0.00 0.00 58 1019.2
20260502192125 19 348 4.8 6.4 0.00 0.00 0.00 58 1019.2
20260502191622 18 148 0.0 4.8 0.00 0.00 0.00 58 1019.2
20260502191119 18 42 3.2 6.4 0.00 0.00 0.00 57 1019.6
20260502190617 18 78 4.8 14.5 0.00 0.00 0.00 60 1019.2
20260502190114 17 24 4.8 11.3 0.00 0.00 0.00 61 1019.6
20260502185609 17 350 3.2 9.7 0.00 0.00 0.00 61 1019.6
20260502185106 17 1 9.7 11.3 0.00 0.00 0.00 61 1019.6
20260502184602 17 84 9.7 12.9 0.00 0.00 0.00 61 1019.6
20260502184057 17 59 4.8 6.4 0.00 0.00 0.00 62 1019.6
20260502183554 17 108 1.6 4.8 0.00 0.00 0.00 62 1019.6
20260502183050 18 69 1.6 9.7 0.00 0.00 0.00 63 1019.6
20260502182546 18 63 1.6 9.7 0.00 0.00 0.00 63 1019.6
20260502182042 17 141 1.6 12.9 0.00 0.00 0.00 64 1019.6
20260502181540 18 107 0.0 4.8 0.00 0.00 0.00 64 1019.6
20260502181038 17 341 4.8 6.4 0.00 0.00 0.00 64 1019.6
20260502180535 17 11 3.2 9.7 0.00 0.00 0.00 67 1019.6
20260502170454 15 311 1.6 11.3 0.00 0.00 0.00 72 1019.9
20260502163937 13 305 3.2 6.4 0.00 0.00 0.00 75 1019.9
20260502163433 13 52 1.6 4.8 0.00 0.00 0.00 76 1019.6
20260502162931 13 306 3.2 4.8 0.00 0.00 0.00 76 1019.9
20260502162428 13 316 1.6 4.8 0.00 0.00 0.00 77 1019.9
20260502161925 13 224 4.8 9.7 0.00 0.00 0.00 77 1019.6
20260502161421 13 46 4.8 6.4 0.00 0.00 0.00 77 1019.6
20260502160919 12 3 3.2 9.7 0.00 0.00 0.00 78 1019.6
20260502160417 12 21 6.4 9.7 0.00 0.00 0.00 78 1019.6
20260502151855 10 324 3.2 4.8 0.00 0.00 0.00 94 1019.6
20260502151351 10 28 1.6 1.6 0.00 0.00 0.00 94 1019.6
20260502150849 10 82 0.0 1.6 0.00 0.00 0.00 94 1019.6
20260502150345 10 82 1.6 3.2 0.00 0.00 0.00 95 1019.6
20260502130734 8 92 0.0 1.6 0.00 0.00 0.00 95 1019.6
20260502130231 8 127 0.0 0.0 0.00 0.00 0.00 95 1019.2
20260502123717 8 117 1.6 1.6 0.00 0.00 0.00 94 1019.2
20260502123214 8 134 0.0 0.0 0.00 0.00 0.00 94 1019.2
20260502122710 7 134 0.0 0.0 0.00 0.00 0.00 94 1019.2
20260502122207 8 134 0.0 0.0 0.00 0.00 0.00 94 1019.2
20260502121705 8 134 0.0 0.0 0.00 0.00 0.00 94 1019.2
20260502121203 8 122 0.0 0.0 0.00 0.00 0.00 94 1019.2
20260502120659 8 125 0.0 1.6 0.00 0.00 0.00 94 1019.2
20260502120156 7 166 0.0 1.6 0.00 0.00 0.00 94 1019.2
20260502115654 7 166 1.6 1.6 0.00 0.00 0.00 94 1019.2
20260502115149 7 139 0.0 0.0 0.00 0.00 0.00 93 1019.2
20260502114646 7 140 0.0 1.6 0.00 0.00 0.00 93 1019.2
20260502114143 8 134 0.0 0.0 0.00 0.00 0.00 93 1018.9
20260502113640 8 134 1.6 1.6 0.00 0.00 0.00 93 1018.5
20260502113139 8 134 0.0 1.6 0.00 0.00 0.00 93 1018.9
20260502112636 8 134 0.0 0.0 0.00 0.00 0.00 93 1018.9
20260502112133 8 134 0.0 0.0 0.00 0.00 0.00 93 1018.5
20260502111631 8 134 0.0 0.0 0.00 0.00 0.00 93 1018.9
20260502111128 8 134 0.0 0.0 0.00 0.00 0.00 93 1018.9
20260502110626 8 134 0.0 1.6 0.00 0.00 0.00 93 1018.9
20260502110123 8 135 0.0 0.0 0.00 0.00 0.00 93 1018.9
20260502105620 8 135 0.0 1.6 0.00 0.00 0.00 93 1018.9
20260502105117 8 130 0.0 0.0 0.00 0.00 0.00 92 1018.9
20260502104614 8 128 0.0 3.2 0.00 0.00 0.00 93 1018.9
20260502104112 8 118 0.0 0.0 0.00 0.00 0.00 92 1018.9
20260502103609 8 139 1.6 1.6 0.00 0.00 0.00 92 1018.9
20260502103108 8 77 0.0 0.0 0.00 0.00 0.00 92 1018.9
20260502102604 8 77 0.0 0.0 0.00 0.00 0.00 92 1019.2
20260502102101 8 77 0.0 0.0 0.00 0.00 0.00 92 1019.2
20260502101559 8 77 0.0 0.0 0.00 0.00 0.00 92 1019.2
20260502101057 8 77 0.0 0.0 0.00 0.00 0.00 92 1018.9
20260502100555 8 77 0.0 1.6 0.00 0.00 0.00 91 1018.9
20260502091529 8 198 0.0 1.6 0.00 0.00 0.00 91 1018.9
20260502091027 8 198 0.0 4.8 0.00 0.00 0.00 90 1018.9
20260502090524 9 140 0.0 1.6 0.00 0.00 0.00 90 1018.9
20260502071418 10 252 3.2 3.2 0.00 0.00 0.00 86 1018.5
20260502070916 10 95 1.6 6.4 0.00 0.00 0.00 86 1018.5
20260502070414 10 80 1.6 3.2 0.00 0.00 0.00 86 1018.5
20260502065912 10 0 1.6 4.8 0.00 0.00 0.00 85 1018.5
20260502065410 10 32 1.6 4.8 0.00 0.00 0.00 85 1018.9
20260502064908 10 86 1.6 3.2 0.00 0.00 0.00 85 1018.9
20260502064406 10 64 3.2 9.7 0.00 0.00 0.00 85 1018.5
20260502063903 10 117 1.6 11.3 0.00 0.00 0.00 84 1018.5
20260502063400 10 5 4.8 11.3 0.00 0.00 0.00 84 1018.5
20260502062858 10 30 3.2 6.4 0.00 0.00 0.00 84 1018.5
20260502062355 11 58 1.6 3.2 0.00 0.00 0.00 83 1018.5
20260502061854 11 111 1.6 4.8 0.00 0.00 0.00 83 1018.5
20260502061351 11 87 0.0 4.8 0.00 0.00 0.00 82 1018.5
20260502060847 11 67 0.0 6.4 0.00 0.00 0.00 83 1018.5
20260502060342 11 215 1.6 3.2 0.00 0.00 0.00 82 1018.5
20260502055840 11 216 6.4 9.7 0.00 0.00 0.00 82 1018.5
20260502055338 11 62 1.6 4.8 0.00 0.00 0.00 82 1018.2
20260502054837 11 124 3.2 4.8 0.00 0.00 0.00 82 1018.5
20260502054334 11 1 3.2 12.9 0.00 0.00 0.00 81 1018.5
20260502053831 11 59 1.6 9.7 0.00 0.00 0.00 81 1018.5
20260502053328 11 57 3.2 9.7 0.00 0.00 0.00 81 1018.5
20260502052826 11 341 4.8 9.7 0.00 0.00 0.00 81 1018.2
20260502052324 11 6 3.2 6.4 0.00 0.00 0.00 80 1018.5
20260502051821 11 102 1.6 16.1 0.00 0.00 0.00 80 1018.5
20260502051320 11 88 3.2 14.5 0.00 0.00 0.00 80 1018.5
20260502050816 11 32 3.2 9.7 0.00 0.00 0.00 79 1018.5
20260502050313 11 6 8.0 11.3 0.00 0.00 0.00 78 1018.5
20260502045810 11 65 3.2 6.4 0.00 0.00 0.00 79 1018.5
20260502045306 11 343 3.2 16.1 0.00 0.00 0.00 80 1018.5
20260502044804 11 9 1.6 6.4 0.00 0.00 0.00 79 1018.2
20260502044259 12 357 3.2 11.3 0.00 0.00 0.00 79 1018.2
20260502043757 12 114 3.2 11.3 0.00 0.00 0.00 78 1018.2
20260502043254 12 65 3.2 9.7 0.00 0.00 0.00 78 1017.9
20260502042753 12 91 3.2 11.3 0.00 0.00 0.00 77 1018.2
20260502042251 12 104 4.8 11.3 0.00 0.00 0.00 77 1018.2
20260502041749 12 105 1.6 11.3 0.00 0.00 0.00 77 1018.2
20260502041246 12 306 4.8 11.3 0.00 0.00 0.00 77 1018.2
20260502040743 12 104 1.6 9.7 0.00 0.00 0.00 77 1018.2
20260502040239 12 103 1.6 6.4 0.00 0.00 0.00 77 1018.2
20260502035735 12 344 3.2 9.7 0.00 0.00 0.00 77 1018.2
20260502035232 12 312 3.2 11.3 0.00 0.00 0.00 76 1018.2
20260502034730 12 1 9.7 14.5 0.00 0.00 0.00 75 1017.9
20260502034228 13 18 6.4 16.1 0.00 0.00 0.00 73 1017.9
20260502033726 13 228 3.2 11.3 0.00 0.00 0.00 73 1017.9
20260502033223 13 339 4.8 11.3 0.00 0.00 0.00 72 1017.9
20260502032720 13 12 3.2 9.7 0.00 0.00 0.00 73 1017.9
20260502032216 13 187 1.6 12.9 0.00 0.00 0.00 72 1017.9
20260502031714 13 281 3.2 16.1 0.00 0.00 0.00 72 1017.9
20260502031212 13 20 3.2 14.5 0.00 0.00 0.00 72 1017.9
20260502030710 13 350 4.8 12.9 0.00 0.00 0.00 71 1017.9
20260502030208 13 109 1.6 12.9 0.00 0.00 0.00 72 1017.5